Regional Weather Roundup
Issued by NWS

Home | Current Version | Previous Version | Text Only | Print | Product List | Glossary Off
Versions: 1 2 3 4 5 6 7 8 9 10 11 12 13 14 15 16 17 18 19 20 21 22 23 24 25 26 27 28 29 30 31 32 33 34 35 36 37 38 39 40 41 42 43 44 45 46 47 48 49 50

000
ASUS43 KOAX 160910
RWRNE

WEATHER ROUNDUP FOR NEBRASKA
NATIONAL WEATHER SERVICE OMAHA NE
300 AM CST MON JAN 16 2017

NOTES: SATELLITE DATA IS BEING USED TO AUGMENT CLOUD COVER ABOVE
       12000 FEET.
       "FAIR" INDICATES FEW OR NO CLOUDS BELOW 12,000 FEET WITH NO
       SIGNIFICANT WEATHER AND/OR OBSTRUCTIONS TO VISIBILITY.

  * THESE STATIONS DO NOT REPORT WEATHER SUCH AS RAIN...SNOW OR FOG.

NEZ001>004-019>022-054>056-161000-
NEBRASKA PANHANDLE

CITY           SKY/WX    TMP DP  RH WIND       PRES   REMARKS
SCOTTSBLUFF    CLOUDY    32  27  81 W3        30.00S
ALLIANCE       CLOUDY    31  25  78 N8        29.98S WCI  23
CHADRON        CLOUDY    26  22  84 SW5       30.05R WCI  20
KIMBALL        FLURRIES  31  30  95 N12       29.96S WCI  22
SIDNEY         LGT SNOW  31  28  89 N13       29.95S FOG     WCI  21
$$

NEZ057>060-069>072-079>082-161000-
SOUTHWEST NEBRASKA

CITY           SKY/WX    TMP DP  RH WIND       PRES   REMARKS
NORTH PLATTE   CLOUDY    32  30  92 N3        29.99S
IMPERIAL       FRZ RAIN  31  30  96 N8        29.96S FOG     WCI  23
LEXINGTON      CLOUDY    32  31  95 NE5       30.00F FOG     WCI  27
MCCOOK         CLOUDY    30  30 100 NE7       29.97F FOG     WCI  23
OGALLALA       MIX PCPN  33  32  98 CALM      29.97F
$$

NEZ005>010-023>029-035>040-094-161000-
NORTH CENTRAL NEBRASKA

CITY           SKY/WX    TMP DP  RH WIND       PRES   REMARKS
VALENTINE      CLOUDY    27  23  85 NW5       30.03F WCI  22
AINSWORTH      MIX PCPN  31  30  96 CALM      30.03S
BROKEN BOW     CLOUDY    32  30  92 NE6       30.01S WCI  26
O`NEILL        MIX PCPN  32  32  99 CALM      30.07S
ORD            CLOUDY    31  28  89 NE3       30.03F
THEDFORD       MIX PCPN  32  32  99 CALM      30.02S
$$

NEZ041-046>049-061>064-073>077-083>087-161000-
SOUTH CENTRAL NEBRASKA

CITY           SKY/WX    TMP DP  RH WIND       PRES   REMARKS
GRAND ISLAND   MIX PCPN  30  30 100 NE10      30.03F FOG     WCI  21
AURORA         MIX PCPN  31  31  98 NE7       30.03F WCI  24
HASTINGS       CLOUDY    31  29  92 NE9       30.02F FOG     WCI  23
HEBRON         MIX PCPN  32  31  98 NE8       30.03R WCI  25
HOLDREGE       CLOUDY    31  30  96 NE7       29.98F FOG     WCI  24
KEARNEY *      CLOUDY    30  28  93 NE8       30.01F WCI  23
YORK           CLOUDY    32  32 100 CALM      30.05F FOG
$$

NEZ011>018-030>034-042>045-161000-
NORTHEAST NEBRASKA

CITY           SKY/WX    TMP DP  RH WIND       PRES   REMARKS
NORFOLK        FRZ RAIN  30  28  92 NE5       30.08F FOG     WCI  25
ALBION         MIX PCPN  31  30  96 E3        30.06F
BLAIR          FOG       32  32  99 NE6       30.08F VSB 3/4 WCI  26
FREMONT        CLOUDY    32  32 100 CALM      30.10F FOG
TEKAMAH        CLOUDY    32  31  96 NE3       30.12S FOG
WAYNE          CLOUDY    31  30  98 CALM      30.10F FOG
$$

NEZ050>053-065>068-078-088>093-161000-
SOUTHEAST NEBRASKA

CITY           SKY/WX    TMP DP  RH WIND       PRES   REMARKS
LINCOLN        FRZ RAIN  32  31  96 NE8       30.08F FOG     WCI  25
OMAHA EPPLEY   CLOUDY    33  29  85 NE5       30.10F FOG     WCI  29
BEATRICE       CLOUDY    32  32 100 NE8       30.05R FOG     WCI  25
FALLS CITY     CLOUDY    32  31  96 NE10      30.06S FOG     WCI  24
NEBRASKA CITY  MIX PCPN  32  32 100 NE7       30.08S VSB 1/2 WCI  25
PLATTSMOUTH    CLOUDY    32  30  92 NE6       30.08F FOG     WCI  26
$$

NEZ044-045-051>053-067-161000-
OMAHA AREA

CITY           SKY/WX    TMP DP  RH WIND       PRES   REMARKS
OMAHA EPPLEY   CLOUDY    33  29  85 NE5       30.10F FOG     WCI  29
BLAIR          FOG       32  32  99 NE6       30.08F VSB 3/4 WCI  26
FREMONT        CLOUDY    32  32 100 CALM      30.10F FOG
MILLARD        CLOUDY    34  32  94 CALM      30.10S FOG
OFFUTT AFB     CLOUDY    32  32 100 NE5       30.09F WCI  28
PLATTSMOUTH    CLOUDY    32  30  92 NE6       30.08F FOG     WCI  26
WAHOO          MIX PCPN  32  31  96 NE7       30.09S WCI  26
$$




USA.gov is the U.S. government's official web portal to all federal, state and local government web resources and services.